{"data":{"norad_id":66978,"intl_designator":"2025-288V","name":"STARLINK-35787","alt_names":[],"object_type":"PAYLOAD","status":"ACTIVE","operator":null,"country":"US","launch_date":"2025-12-08","launch_site_code":"AFETR","launch_vehicle":null,"mission":null,"orbit_class":"UNKNOWN","rcs_meters":null,"size_class":null,"mass_kg":null,"dimensions":null,"purposes":["comms"],"wikipedia_slug":null,"has_3d_model":false,"image_url":null,"decayed_at":null,"tle_current":{"epoch":"2026-09-20T07:10:54.301440Z","epoch_age_seconds":99785,"freshness":"FRESH","line1":"1 66978U 25288V   26263.29923960  .00015216  00000+0  56117-3 0  9997","line2":"2 66978  42.9994   4.1226 0002630 282.8449  77.2108 15.27586327 45053","mean_motion":15.27586327,"eccentricity":0.000263,"inclination_deg":42.9994,"raan_deg":4.1226,"arg_perigee_deg":282.8449,"mean_anomaly_deg":77.2108,"bstar":0.00056117,"rev_number":4505,"period_min":94.266358276981,"perigee_km":481.22566383026,"apogee_km":484.83463775157,"semimajor_km":6861.1671507909,"source":"CELESTRAK","updated_at":"2026-09-21T09:00:36.065912Z"}}}